Content
SEND FEEDBACK

Daily
Averages
Monthly
Summary
Canada

LONDON, ONTARIO


Home > North America > Canada > Ontario
Elevation: 912 feet     Latitude: 43 02N     Longitude: 081 09W

WEATHER
 
SELECT A DAY
Number of Records: 193,807;   Date Range: 1/1/95 - 9/30/14
 
SHARE

PRINT THIS DATA

[ ← Previous Day ]
WEATHER ALMANAC - MARCH 20, 2013
[ Next Day → ]
[ °C ]   °F
Weather ElementAverageHighLow
Temperature23.3 °F26.6 °F (12:00 pm)19.4 °F (9:00 pm)
Dewpoint16.2 °F20 °F (2:00 am)12.2 °F (11:00 pm)
Humidity73.9 %86 % (12:22 am)54 % (2:00 pm)
Barometer29.11 in29.89 in (6:22 pm) (7:00 pm)
Wind Speed11 mph17.3 mph (10:00 am)
Wind Gust21.9 mph (11:48 am)
Weather ElementAverage
Visibility9.8 mi
Wind DirectionW (272.3 °)

Weather ElementTotal
Precipitation---
Heating Degree Days42 (Base 65)
Averaged from 39 records on March 20, 2013
WEATHER CONDITIONS BREAKOUT
WIND DIRECTION BREAKOUT
WEATHER BY HOUR - MARCH 20, 2013
[ °C ]   °F
Local TimeTemperatureDewpointHumidityBarometerVisibilityWind DirectionWind SpeedGust SpeedPrecipitationEventsConditions
12:22 AM23.0 °F19.4 °F86 %29.88 in1.0 miWSW (250°)10.4 mph19.6 mphSnowLight Snow Showers
1:00 AM23.0 °F19.4 °F86 %29.87 in1.0 miWest (260°)16.1 mphSnowLight Snow Showers
1:40 AM23.0 °F19.4 °F86 %29.88 in1.5 miWest (270°)12.7 mphSnowLight Snow Showers
1:50 AM23.0 °F19.4 °F86 %29.88 in2.0 miWest (260°)12.7 mphSnowLight Snow Showers
2:00 AM23.0 °F20.0 °F82 %29.88 in4.0 miWest (260°)11.5 mphOvercast
2:00 AM23.0 °F19.4 °F86 %29.88 in4.0 miWest (260°)11.5 mphSnowLight Snow Showers
3:00 AM23.0 °F17.6 °F80 %29.88 in5.0 miWSW (250°)11.5 mphSnowLight Snow Showers
4:00 AM23.0 °F17.6 °F80 %29.88 in4.0 miWest (260°)11.5 mphSnowLight Snow Showers
5:00 AM23.0 °F15.8 °F74 %15.0 miWSW (250°)10.4 mphOvercast
6:00 AM21.2 °F15.8 °F80 %29.88 in15.0 miWSW (250°)8.1 mphMostly Cloudy
7:00 AM21.2 °F15.8 °F80 %29.88 in15.0 miWSW (250°)9.2 mphMostly Cloudy
8:00 AM21.2 °F14.0 °F74 %29.88 in15.0 miWSW (250°)9.2 mphMostly Cloudy
9:00 AM21.2 °F14.0 °F74 %29.88 in15.0 miWSW (250°)12.7 mphScattered Clouds
10:00 AM23.0 °F14.0 °F68 %29.88 in15.0 miWest (260°)17.3 mphMostly Cloudy
10:35 AM23.0 °F14.0 °F68 %29.88 in15.0 miWest (280°)12.7 mph18.4 mphMostly Cloudy
11:00 AM24.8 °F15.8 °F69 %29.88 in15.0 miWest (260°)15.0 mphMostly Cloudy
11:40 AM24.8 °F15.8 °F69 %29.88 in15.0 miWest (280°)10.4 mph18.4 mphMostly Cloudy
11:48 AM24.8 °F15.8 °F69 %29.88 in8.0 miWest (280°)13.8 mph21.9 mphSnowLight Snow Showers
12:00 PM26.6 °F17.6 °F69 %29.88 in5.0 miWest (270°)11.5 mph17.3 mphSnowLight Snow Showers
1:00 PM26.6 °F15.8 °F64 %29.88 in10.0 miWNW (290°)13.8 mph20.7 mphSnowLight Snow Showers
1:52 PM26.6 °F14.0 °F59 %29.88 in2.5 miWest (280°)13.8 mphSnowLight Snow Showers
2:00 PM26.0 °F16.0 °F54 %29.87 in10.0 miWest (280°)13.8 mph
2:00 PM26.6 °F15.8 °F64 %29.87 in10.0 miWest (280°)10.4 mph20.7 mphSnowLight Snow Showers
3:00 PM26.6 °F14.0 °F59 %29.86 in15.0 miWest (280°)12.7 mphSnowLight Snow Showers
4:00 PM26.6 °F14.0 °F59 %29.87 in15.0 miWest (270°)13.8 mph19.6 mphSnowLight Snow Showers
4:53 PM24.8 °F17.6 °F74 %29.88 in2.5 miWest (280°)15.0 mph21.9 mphSnowLight Snow Showers
5:00 PM24.8 °F17.6 °F74 %29.88 in2.0 miWNW (290°)9.2 mph20.7 mphSnowLight Snow Showers
5:33 PM24.8 °F17.6 °F74 %29.88 in10.0 miWest (280°)9.2 mphSnowLight Snow Showers
5:40 PM24.8 °F17.6 °F74 %29.88 in2.0 miWNW (300°)9.2 mphSnowLight Snow Showers
5:49 PM24.8 °F17.6 °F74 %29.88 in10.0 miWNW (290°)12.7 mphSnowLight Snow Showers
6:00 PM23.0 °F17.6 °F80 %29.88 in10.0 miWNW (290°)11.5 mphSnowLight Snow Showers
6:22 PM23.0 °F17.6 °F80 %29.89 in15.0 miWNW (300°)9.2 mphScattered Clouds
7:00 PM23.0 °F15.8 °F74 %29.89 in15.0 miWNW (300°)9.2 mphPartly Cloudy
8:00 PM21.0 °F14.0 °F65 %29.89 in15.0 miWNW (290°)4.6 mph
8:00 PM21.2 °F14.0 °F74 %29.89 in15.0 miWNW (290°)4.6 mphPartly Cloudy
9:00 PM19.4 °F14.0 °F80 %29.89 in15.0 miWest (260°)4.6 mphPartly Cloudy
10:00 PM19.4 °F14.0 °F80 %29.89 in15.0 miWest (270°)8.1 mphPartly Cloudy
11:00 PM19.4 °F12.2 °F74 %29.88 in15.0 miWest (270°)10.4 mphPartly Cloudy
11:52 PM19.4 °F14.0 °F80 %29.88 in6.0 miWest (280°)4.6 mphSnowLight Snow Showers
Hourly data recorded from CYXU, located miles away from London, Ontario







STORIES FROM OUR PARTNERS